DW7955 Weather Reports


time (UTC)temp
F
wind
direction
speed
knots
gust
knots
rain 1hr
in
rain 24hr
in
rain mn
in
humidity
%
barometer
mb
20260507224518 72 198 5.2 9.6 0.00 0.00 0.00 21 1010.2
20260507223017 73 164 3.5 9.6 0.00 0.00 0.00 21 1010.3
20260507221514 72 210 4.3 10.4 0.00 0.00 0.00 21 1010.7
20260507220012 72 105 1.7 8.7 0.00 0.03 0.00 21 1011.0
20260507214508 73 228 0.0 4.3 0.00 0.03 0.00 21 1011.5
20260507213004 71 200 4.3 10.4 0.00 0.03 0.00 23 1011.8
20260507211503 71 222 1.7 8.7 0.00 0.03 0.00 22 1012.3
20260507210100 70 335 0.9 6.1 0.00 0.03 0.00 23 1012.7
20260507204601 70 238 3.5 9.6 0.00 0.03 0.00 23 1013.2
20260507203055 70 205 1.7 8.7 0.00 0.03 0.00 21 1013.7
20260507201601 69 221 2.6 7.0 0.00 0.03 0.00 22 1014.1
20260507200054 69 300 1.7 7.0 0.00 0.07 0.00 18 1014.5
20260507194550 69 267 3.5 8.7 0.00 0.07 0.00 21 1014.7
20260507193042 68 241 2.6 8.7 0.00 0.07 0.00 20 1015.0
20260507191545 67 189 2.6 7.0 0.00 0.07 0.00 21 1015.2
20260507190036 66 257 0.9 5.2 0.00 0.12 0.00 22 1015.6
20260507184536 66 311 2.6 10.4 0.00 0.12 0.00 24 1016.0
20260507183038 65 298 3.5 10.4 0.00 0.12 0.00 27 1016.4
20260507181527 64 257 4.3 14.8 0.00 0.12 0.00 27 1016.8
20260507180024 64 231 6.1 13.9 0.00 0.15 0.00 29 1017.1
20260507174527 63 231 7.8 15.6 0.00 0.15 0.00 28 1017.4
20260507173017 62 215 5.2 15.6 0.00 0.15 0.00 30 1017.8
20260507171519 61 233 9.6 15.6 0.00 0.15 0.00 28 1018.1
20260507170011 60 217 7.0 15.6 0.00 0.19 0.00 28 1018.4
20260507164509 60 244 3.5 10.4 0.00 0.19 0.00 34 1018.6
20260507163003 58 211 6.1 17.4 0.00 0.19 0.00 35 1018.8
20260507161608 57 234 7.0 18.2 0.00 0.19 0.00 35 1019.0
20260507160056 56 240 8.7 17.4 0.00 0.23 0.00 35 1019.3
20260507154552 55 246 6.1 16.5 0.00 0.23 0.00 38 1019.3
20260507153050 54 271 4.3 13.9 0.00 0.23 0.00 38 1019.6
20260507151546 53 252 5.2 16.5 0.00 0.23 0.00 37 1019.9
20260507150046 52 234 5.2 13.9 0.00 0.23 0.00 39 1020.2
20260507144540 52 246 6.1 13.9 0.00 0.23 0.00 37 1020.1
20260507143055 49 188 4.3 12.2 0.00 0.23 0.00 43 1020.4
20260507141547 48 271 2.6 10.4 0.00 0.23 0.00 49 1020.7
20260507140028 46 318 4.3 13.9 0.00 0.24 0.00 49 1021.0
20260507134524 44 310 2.6 7.8 0.00 0.24 0.00 56 1021.3
20260507133020 42 274 2.6 7.8 0.00 0.24 0.00 57 1021.5
20260507131515 41 240 1.7 8.7 0.00 0.24 0.00 61 1021.7
20260507130029 40 279 1.7 6.1 0.00 0.24 0.00 63 1021.7
20260507124511 39 260 0.0 7.0 0.00 0.24 0.00 64 1021.6
20260507123006 39 269 1.7 11.3 0.00 0.24 0.00 65 1021.6
20260507121504 38 315 2.6 8.7 0.00 0.24 0.00 66 1021.6
20260507120001 38 263 1.7 8.7 0.00 0.24 0.00 67 1021.5
20260507114600 37 261 1.7 6.1 0.00 0.24 0.00 70 1021.4
20260507113056 36 252 0.9 5.2 0.00 0.24 0.00 72 1021.6
20260507111555 35 154 0.0 7.0 0.00 0.24 0.00 75 1021.6
20260507110052 35 305 1.7 7.0 0.00 0.24 0.00 78 1021.5
20260507104551 34 286 0.0 0.9 0.00 0.24 0.00 79 1021.6
20260507103045 33 296 0.0 5.2 0.00 0.24 0.00 83 1021.8
20260507101546 32 302 0.0 0.0 0.00 0.24 0.00 86 1021.9
20260507100053 31 302 0.0 1.7 0.00 0.24 0.00 88 1022.0
20260507094541 31 302 0.0 0.0 0.00 0.24 0.00 88 1022.0
20260507093042 31 302 0.0 0.0 0.00 0.24 0.00 88 1022.2
20260507091541 31 302 0.0 1.7 0.00 0.24 0.00 87 1022.4
20260507090044 32 302 0.0 0.0 0.00 0.26 0.00 87 1022.4
20260507084547 32 302 0.0 0.0 0.00 0.26 0.00 85 1022.5
20260507083037 33 302 0.0 2.6 0.00 0.26 0.00 85 1022.5
20260507081536 34 302 0.0 3.5 0.00 0.26 0.00 86 1022.3
20260507080033 32 339 1.7 3.5 0.00 0.32 0.00 90 1022.6
20260507074530 31 20 0.0 0.0 0.00 0.32 0.00 90 1022.6
20260507073032 31 20 0.9 2.6 0.00 0.32 0.00 91 1022.8
20260507071534 32 24 2.6 3.5 0.00 0.32 0.00 91 1022.5
20260507070031 32 339 0.0 3.5 0.00 0.34 0.00 90 1022.6
20260507064535 32 188 0.0 0.0 0.00 0.34 0.00 91 1022.7
20260507063022 32 188 0.0 0.0 0.00 0.34 0.00 90 1022.7
20260507061520 32 188 0.0 0.0 0.00 0.34 0.00 90 1022.7
20260507060018 32 188 0.0 0.0 0.00 0.35 0.34 89 1022.5
20260507054518 33 188 0.0 0.0 0.00 0.35 0.34 88 1022.5
20260507053017 33 188 0.0 0.0 0.00 0.35 0.34 88 1022.5
20260507051517 34 188 0.0 0.0 0.00 0.35 0.34 88 1022.4
20260507050033 34 188 0.0 0.0 0.00 0.35 0.34 88 1022.4
20260507044516 34 188 0.0 0.0 0.00 0.35 0.34 88 1022.3
20260507043015 34 188 0.0 0.0 0.00 0.35 0.34 87 1022.4
20260507041523 35 188 0.0 0.0 0.00 0.35 0.34 85 1022.4
20260507040013 36 188 0.0 0.0 0.00 0.35 0.34 84 1022.3
20260507034512 36 188 0.0 0.0 0.00 0.35 0.34 82 1022.3
20260507033012 37 188 0.0 1.7 0.00 0.35 0.34 82 1022.3
20260507031511 37 188 0.0 2.6 0.00 0.35 0.34 80 1022.2
20260507030020 38 196 1.7 4.3 0.00 0.35 0.34 79 1022.2
20260507024514 39 204 3.5 6.1 0.00 0.35 0.34 78 1022.0
20260507023009 39 194 1.7 4.3 0.00 0.35 0.34 77 1022.0
20260507021509 39 176 0.0 3.5 0.00 0.35 0.34 77 1022.0
20260507020011 40 176 0.9 2.6 0.00 0.35 0.34 76 1022.0
20260507014512 40 176 0.0 1.7 0.00 0.35 0.34 72 1022.0
20260507013012 41 176 0.0 3.5 0.00 0.35 0.34 68 1021.9
20260507011508 41 136 1.7 4.3 0.00 0.35 0.34 68 1021.9
20260507010008 41 176 1.7 5.2 0.00 0.41 0.34 66 1021.8
20260507004506 42 144 2.6 3.5 0.00 0.41 0.34 69 1021.7
20260507003005 42 238 0.9 4.3 0.00 0.41 0.34 67 1021.8
20260507001504 42 234 2.6 5.2 0.00 0.41 0.34 70 1021.9
20260507000003 42 187 1.7 5.2 0.00 0.53 0.34 72 1021.9
20260506234601 41 149 0.9 5.2 0.00 0.53 0.34 78 1021.8
20260506233100 41 164 3.5 6.1 0.00 0.53 0.34 81 1021.8
20260506231609 40 248 2.6 4.3 0.00 0.53 0.34 85 1021.8
20260506230106 38 224 0.0 4.3 0.00 0.53 0.34 87 1021.8